This is the latest recevied weather packets stored in our database for station/object KA3RQR. If no packets are shown the sender has not sent any weather packets the latest 10 day(s).
| Time | Temp. | Humidity | Pressure | Rain* | Wind** | Luminosity | Snow |
|---|---|---|---|---|---|---|---|
| 1778085506 | 17.22° C | 93% | 1009.1 hPa | 0 mm | - | 152 W/m² | - |
| 1778085200 | 17.22° C | 95% | 1009.4 hPa | 0 mm | - | 177 W/m² | - |
| 1778084896 | 16.67° C | 98% | 1009.4 hPa | 0 mm | - | 217 W/m² | - |
| 1778084594 | 16.67° C | 98% | 1009.3 hPa | 0 mm | - | 224 W/m² | - |
| 1778084285 | 16.67° C | 99% | 1009.4 hPa | 0 mm | - | 222 W/m² | - |
| 1778083983 | 16.11° C | 99% | 1009.5 hPa | 0 mm | - | 176 W/m² | - |
| 1778083680 | 16.11° C | 99% | 1009.4 hPa | 0 mm | - | 133 W/m² | - |
| 1778083376 | 16.11° C | 99% | 1009.2 hPa | 0 mm | - | 136 W/m² | - |
| 1778083076 | 16.11° C | 99% | 1009.4 hPa | 0 mm | - | 164 W/m² | - |
| 1778082772 | 16.11° C | 99% | 1009.6 hPa | 0 mm | - | 167 W/m² | - |
| 1778081644 | 15.56° C | 99% | 1009.7 hPa | 0 mm | - | 155 W/m² | - |
| 1778081342 | 15.56° C | 99% | 1009.9 hPa | 0 mm | - | 92 W/m² | - |
| 1778081038 | 15.56° C | 99% | 1009.8 hPa | 0 mm | - | 139 W/m² | - |
| 1778080737 | 15.56° C | 99% | 1009.9 hPa | 0 mm | - | 186 W/m² | - |
| 1778080434 | 15.56° C | 99% | 1009.7 hPa | 1.27 mm | - | 122 W/m² | - |
| 1778080131 | 15° C | 99% | 1010 hPa | 3.05 mm | - | 94 W/m² | - |
| 1778079827 | 15° C | 99% | 1010 hPa | 1.78 mm | - | 41 W/m² | - |
| 1778079524 | 15° C | 99% | 1009.8 hPa | 1.78 mm | - | 29 W/m² | - |
| 1778079220 | 15° C | 99% | 1010 hPa | 3.05 mm | - | 41 W/m² | - |
| 1778078918 | 15.56° C | 99% | 1010.4 hPa | 1.27 mm | - | 52 W/m² | - |
| 1778078614 | 15° C | 99% | 1010.5 hPa | 1.78 mm | - | 61 W/m² | - |
| 1778078313 | 15° C | 99% | 1010.5 hPa | 1.78 mm | - | 83 W/m² | - |
| 1778078010 | 15° C | 99% | 1010.5 hPa | 0 mm | - | 61 W/m² | - |
| 1778077708 | 15.56° C | 99% | 1010.4 hPa | 0 mm | - | 52 W/m² | - |
| 1778077405 | 15° C | 99% | 1010.7 hPa | 0 mm | - | 65 W/m² | - |
* Rain latest hour (hover to see other rain measurements)
** Current wind speed in m/s (hover to see current wind gust speed)